| time (UTC) | temp F | wind direction | speed knots | gust knots | rain 1hr in | rain 24hr in | rain mn in | humidity % | barometer mb |
| 20260507171618 | 58 | 297 | 0.0 | 0.9 | 0.00 | 0.00 | 0.00 | 67 | 1014.3 |
| 20260507170538 | 58 | 49 | 0.0 | 0.9 | 0.00 | 0.00 | 0.00 | 67 | 1014.4 |
| 20260507165518 | 58 | 0.0 | 0.0 | 0.00 | 0.00 | 0.00 | 68 | 1014.4 | |
| 20260507164518 | 58 | 249 | 0.0 | 0.9 | 0.00 | 0.00 | 0.00 | 68 | 1014.4 |
| 20260507163518 | 58 | 283 | 0.0 | 1.7 | 0.00 | 0.00 | 0.00 | 69 | 1014.4 |
| 20260507162519 | 58 | 306 | 0.0 | 1.7 | 0.00 | 0.00 | 0.00 | 69 | 1014.4 |
| 20260507161601 | 57 | 261 | 0.0 | 1.7 | 0.00 | 0.00 | 0.00 | 69 | 1014.4 |
| 20260507160536 | 57 | 344 | 0.0 | 0.0 | 0.00 | 0.00 | 0.00 | 69 | 1014.5 |
| 20260507155520 | 57 | 265 | 0.0 | 0.9 | 0.00 | 0.00 | 0.00 | 69 | 1014.5 |
| 20260507154522 | 58 | 321 | 0.0 | 2.6 | 0.00 | 0.00 | 0.00 | 71 | 1014.5 |
| 20260507153520 | 58 | 191 | 0.0 | 1.7 | 0.00 | 0.00 | 0.00 | 70 | 1014.5 |
| 20260507152517 | 58 | 70 | 0.0 | 4.3 | 0.00 | 0.00 | 0.00 | 69 | 1014.6 |
| 20260507151517 | 58 | 196 | 0.9 | 2.6 | 0.00 | 0.00 | 0.00 | 68 | 1014.6 |
| 20260507150537 | 58 | 146 | 1.7 | 4.3 | 0.00 | 0.00 | 0.00 | 66 | 1014.5 |
| 20260507145557 | 58 | 204 | 0.9 | 3.5 | 0.00 | 0.00 | 0.00 | 64 | 1014.6 |
| 20260507144520 | 59 | 209 | 0.9 | 2.6 | 0.00 | 0.00 | 0.00 | 63 | 1014.6 |
| 20260507143540 | 59 | 193 | 0.9 | 3.5 | 0.00 | 0.00 | 0.00 | 62 | 1014.6 |
| 20260507142520 | 59 | 175 | 0.9 | 2.6 | 0.00 | 0.00 | 0.00 | 60 | 1014.7 |
| 20260507141521 | 58 | 159 | 0.0 | 1.7 | 0.00 | 0.00 | 0.00 | 63 | 1014.8 |
| 20260507140521 | 59 | 139 | 0.9 | 3.5 | 0.00 | 0.00 | 0.00 | 64 | 1014.8 |
| 20260507135518 | 59 | 166 | 0.9 | 4.3 | 0.00 | 0.00 | 0.00 | 63 | 1014.8 |
| 20260507134538 | 58 | 155 | 0.9 | 3.5 | 0.00 | 0.00 | 0.00 | 65 | 1014.8 |
| 20260507133539 | 58 | 171 | 1.7 | 3.5 | 0.00 | 0.00 | 0.00 | 64 | 1014.8 |
| 20260507132519 | 58 | 157 | 0.0 | 2.6 | 0.00 | 0.00 | 0.00 | 66 | 1014.8 |
| 20260507131519 | 58 | 192 | 0.9 | 3.5 | 0.00 | 0.00 | 0.00 | 64 | 1014.9 |
| 20260507130619 | 58 | 157 | 0.9 | 3.5 | 0.00 | 0.00 | 0.00 | 64 | 1014.9 |
| 20260507125522 | 58 | 149 | 1.7 | 3.5 | 0.00 | 0.00 | 0.00 | 64 | 1014.9 |
| 20260507124519 | 58 | 159 | 1.7 | 5.2 | 0.00 | 0.00 | 0.00 | 65 | 1015.0 |
| 20260507123519 | 58 | 149 | 1.7 | 6.1 | 0.00 | 0.00 | 0.00 | 64 | 1015.0 |
| 20260507122517 | 59 | 170 | 1.7 | 5.2 | 0.00 | 0.00 | 0.00 | 63 | 1015.0 |
| 20260507121517 | 59 | 172 | 0.9 | 4.3 | 0.00 | 0.00 | 0.00 | 64 | 1015.0 |
| 20260507120537 | 59 | 153 | 0.9 | 5.2 | 0.00 | 0.00 | 0.00 | 65 | 1015.0 |
| 20260507115520 | 59 | 162 | 0.9 | 5.2 | 0.00 | 0.00 | 0.00 | 65 | 1015.0 |
| 20260507114520 | 59 | 124 | 0.9 | 5.2 | 0.00 | 0.00 | 0.00 | 64 | 1015.1 |
| 20260507113525 | 0 | 145 | 0.9 | 3.5 | 0.00 | 0.00 | 0.00 | ||
| 20260507112518 | 59 | 162 | 0.9 | 4.3 | 0.00 | 0.00 | 0.00 | 67 | 1015.2 |
| 20260507111518 | 59 | 164 | 0.9 | 2.6 | 0.00 | 0.00 | 0.00 | 67 | 1015.2 |
| 20260507110518 | 58 | 137 | 0.9 | 2.6 | 0.00 | 0.00 | 0.00 | 68 | 1015.3 |
| 20260507105521 | 59 | 107 | 0.9 | 2.6 | 0.00 | 0.00 | 0.00 | 67 | 1015.3 |
| 20260507104519 | 59 | 115 | 0.9 | 3.5 | 0.00 | 0.00 | 0.00 | 66 | 1015.4 |
| 20260507103524 | 59 | 128 | 0.9 | 3.5 | 0.00 | 0.00 | 0.00 | 67 | 1015.5 |
| 20260507102545 | 58 | 125 | 0.9 | 4.3 | 0.00 | 0.00 | 0.00 | 67 | 1015.5 |
| 20260507101525 | 58 | 124 | 0.9 | 4.3 | 0.00 | 0.00 | 0.00 | 68 | 1015.6 |
| 20260507100539 | 57 | 97 | 0.9 | 2.6 | 0.00 | 0.00 | 0.00 | 68 | 1015.6 |
| 20260507095519 | 57 | 130 | 0.9 | 2.6 | 0.00 | 0.00 | 0.00 | 70 | 1015.5 |
| 20260507094522 | 57 | 98 | 0.9 | 2.6 | 0.00 | 0.00 | 0.00 | 68 | 1015.5 |
| 20260507093539 | 56 | 156 | 0.9 | 3.5 | 0.00 | 0.00 | 0.00 | 69 | 1015.4 |
| 20260507092520 | 57 | 156 | 0.9 | 4.3 | 0.00 | 0.00 | 0.00 | 69 | 1015.4 |
| 20260507091523 | 57 | 155 | 0.9 | 3.5 | 0.00 | 0.00 | 0.00 | 68 | 1015.4 |
| 20260507090523 | 56 | 104 | 0.9 | 2.6 | 0.00 | 0.00 | 0.00 | 68 | 1015.5 |
| 20260507084520 | 55 | 103 | 0.9 | 4.3 | 0.00 | 0.00 | 0.00 | 71 | 1015.5 |
| 20260507083518 | 55 | 117 | 0.9 | 4.3 | 0.00 | 0.00 | 0.00 | 71 | 1015.5 |
| 20260507082520 | 54 | 110 | 0.9 | 3.5 | 0.00 | 0.00 | 0.00 | 73 | 1015.5 |
| 20260507081521 | 0 | 91 | 0.9 | 3.5 | 0.00 | 0.00 | 0.00 | ||
| 20260507080528 | 52 | 105 | 0.9 | 3.5 | 0.00 | 0.00 | 0.00 | 77 | 1015.5 |
| 20260507075538 | 51 | 96 | 0.9 | 4.3 | 0.00 | 0.00 | 0.00 | 78 | 1015.5 |
| 20260507074521 | 50 | 110 | 1.7 | 4.3 | 0.00 | 0.00 | 0.00 | 79 | 1015.4 |
| 20260507073519 | 50 | 80 | 0.9 | 3.5 | 0.00 | 0.00 | 0.00 | 80 | 1015.4 |
| 20260507072519 | 49 | 85 | 0.9 | 2.6 | 0.00 | 0.00 | 0.00 | 81 | 1015.5 |
| 20260507071519 | 49 | 110 | 0.9 | 4.3 | 0.00 | 0.00 | 0.00 | 82 | 1015.4 |
| 20260507070539 | 49 | 123 | 0.9 | 3.5 | 0.00 | 0.00 | 0.00 | 82 | 1015.4 |
| 20260507065519 | 48 | 126 | 0.9 | 2.6 | 0.00 | 0.00 | 0.00 | 82 | 1015.4 |
| 20260507064520 | 48 | 102 | 0.0 | 1.7 | 0.00 | 0.00 | 0.00 | 82 | 1015.4 |
| 20260507063519 | 48 | 97 | 0.0 | 2.6 | 0.00 | 0.00 | 0.00 | 82 | 1015.4 |
| 20260507062525 | 48 | 122 | 0.0 | 2.6 | 0.00 | 0.00 | 0.00 | 82 | 1015.3 |
| 20260507061523 | 48 | 125 | 0.0 | 1.7 | 0.00 | 0.00 | 0.00 | 82 | 1015.3 |
| 20260507060526 | 48 | 95 | 0.0 | 0.9 | 0.00 | 0.00 | 0.00 | 82 | 1015.2 |
| 20260507055517 | 48 | 123 | 0.0 | 1.7 | 0.00 | 0.00 | 0.00 | 82 | 1015.1 |
| 20260507054526 | 48 | 135 | 0.0 | 1.7 | 0.00 | 0.00 | 0.00 | 82 | 1015.1 |
| 20260507053523 | 48 | 135 | 0.0 | 2.6 | 0.00 | 0.00 | 0.00 | 81 | 1015.1 |
| 20260507052520 | 48 | 140 | 0.9 | 2.6 | 0.00 | 0.00 | 0.00 | 81 | 1015.0 |
| 20260507051520 | 48 | 70 | 0.0 | 1.7 | 0.00 | 0.00 | 0.00 | 80 | 1014.9 |
| 20260507050521 | 48 | 130 | 0.0 | 2.6 | 0.00 | 0.00 | 0.00 | 80 | 1015.0 |
| 20260507045541 | 48 | 127 | 0.0 | 2.6 | 0.00 | 0.00 | 0.00 | 80 | 1015.0 |
| 20260507044518 | 48 | 124 | 0.0 | 2.6 | 0.00 | 0.00 | 0.00 | 80 | 1014.9 |
| 20260507043538 | 48 | 132 | 0.9 | 2.6 | 0.00 | 0.00 | 0.00 | 80 | 1014.9 |
| 20260507042519 | 48 | 113 | 0.0 | 1.7 | 0.00 | 0.00 | 0.00 | 79 | 1014.9 |
| 20260507041522 | 48 | 138 | 0.0 | 1.7 | 0.00 | 0.00 | 0.00 | 79 | 1014.9 |
| 20260507040518 | 48 | 128 | 0.0 | 0.9 | 0.00 | 0.00 | 0.00 | 78 | 1014.9 |
| 20260507035519 | 48 | 100 | 0.0 | 1.7 | 0.00 | 0.00 | 0.00 | 78 | 1014.9 |
| 20260507034519 | 48 | 121 | 0.9 | 4.3 | 0.00 | 0.00 | 0.00 | 78 | 1014.8 |
| 20260507033520 | 48 | 118 | 0.9 | 3.5 | 0.00 | 0.00 | 0.00 | 78 | 1014.8 |
| 20260507032519 | 48 | 112 | 0.9 | 3.5 | 0.00 | 0.00 | 0.00 | 78 | 1014.9 |
| 20260507031519 | 49 | 121 | 0.9 | 4.3 | 0.00 | 0.00 | 0.00 | 78 | 1014.9 |
| 20260507030520 | 49 | 134 | 0.9 | 3.5 | 0.00 | 0.00 | 0.00 | 78 | 1014.9 |
| 20260507025520 | 49 | 109 | 0.0 | 2.6 | 0.00 | 0.00 | 0.00 | 78 | 1014.9 |
| 20260507024521 | 49 | 106 | 0.9 | 2.6 | 0.00 | 0.00 | 0.00 | 77 | 1014.9 |
| 20260507023520 | 49 | 95 | 0.9 | 3.5 | 0.00 | 0.00 | 0.00 | 77 | 1014.9 |
| 20260507022518 | 49 | 114 | 0.9 | 2.6 | 0.00 | 0.00 | 0.00 | 76 | 1014.9 |
| 20260507021518 | 49 | 118 | 0.9 | 3.5 | 0.00 | 0.00 | 0.00 | 76 | 1014.9 |
| 20260507020618 | 50 | 118 | 0.9 | 3.5 | 0.00 | 0.00 | 0.00 | 76 | 1014.9 |
| 20260507015521 | 50 | 112 | 0.9 | 3.5 | 0.00 | 0.00 | 0.00 | 75 | 1014.9 |
| 20260507014522 | 50 | 107 | 0.9 | 3.5 | 0.00 | 0.00 | 0.00 | 75 | 1014.9 |
| 20260507013519 | 50 | 120 | 0.9 | 3.5 | 0.00 | 0.00 | 0.00 | 74 | 1014.9 |
| 20260507012519 | 50 | 109 | 0.9 | 5.2 | 0.00 | 0.00 | 0.00 | 74 | 1014.9 |
| 20260507010519 | 51 | 108 | 0.9 | 3.5 | 0.00 | 0.00 | 0.00 | 72 | 1015.0 |
| 20260507005539 | 51 | 123 | 0.9 | 2.6 | 0.00 | 0.00 | 0.00 | 71 | 1014.9 |
| 20260507004522 | 51 | 102 | 0.9 | 4.3 | 0.00 | 0.00 | 0.00 | 70 | 1014.8 |
| 20260507003637 | 52 | 100 | 0.9 | 4.3 | 0.00 | 0.00 | 0.00 | 69 | 1014.8 |
| 20260507002517 | 52 | 108 | 0.9 | 4.3 | 0.00 | 0.00 | 0.00 | 69 | 1014.9 |
| 20260507001517 | 52 | 115 | 0.9 | 4.3 | 0.00 | 0.00 | 0.00 | 68 | 1014.8 |
| 20260507000517 | 52 | 99 | 0.9 | 5.2 | 0.00 | 0.00 | 0.00 | 67 | 1014.8 |
| 20260506235520 | 52 | 102 | 0.9 | 4.3 | 0.00 | 0.00 | 0.00 | 67 | 1014.9 |
| 20260506234521 | 53 | 105 | 0.9 | 3.5 | 0.00 | 0.00 | 0.00 | 66 | 1014.9 |
| 20260506233520 | 53 | 110 | 0.9 | 1.7 | 0.00 | 0.00 | 0.00 | 64 | 1014.8 |
| 20260506232517 | 53 | 101 | 0.0 | 2.6 | 0.00 | 0.00 | 0.00 | 61 | 1014.8 |
| 20260506231538 | 53 | 106 | 0.9 | 3.5 | 0.00 | 0.00 | 0.00 | 60 | 1014.8 |
| 20260506230518 | 53 | 121 | 0.0 | 2.6 | 0.00 | 0.00 | 0.00 | 61 | 1014.8 |
| 20260506225518 | 54 | 119 | 0.0 | 2.6 | 0.00 | 0.00 | 0.00 | 60 | 1014.8 |
| 20260506224518 | 54 | 94 | 0.0 | 1.7 | 0.00 | 0.00 | 0.00 | 59 | 1014.7 |
| 20260506223518 | 54 | 92 | 0.0 | 2.6 | 0.00 | 0.00 | 0.00 | 60 | 1014.6 |
| 20260506222538 | 54 | 83 | 0.0 | 2.6 | 0.00 | 0.00 | 0.00 | 59 | 1014.6 |
| 20260506221518 | 54 | 120 | 0.0 | 0.9 | 0.00 | 0.00 | 0.00 | 58 | 1014.5 |
| 20260506220539 | 54 | 117 | 0.0 | 2.6 | 0.00 | 0.00 | 0.00 | 58 | 1014.5 |
| 20260506215559 | 54 | 119 | 0.0 | 1.7 | 0.00 | 0.00 | 0.00 | 56 | 1014.4 |
| 20260506214519 | 54 | 118 | 0.0 | 2.6 | 0.00 | 0.00 | 0.00 | 55 | 1014.5 |
| 20260506213520 | 54 | 126 | 0.0 | 1.7 | 0.00 | 0.00 | 0.00 | 55 | 1014.5 |
| 20260506212519 | 54 | 121 | 0.0 | 2.6 | 0.00 | 0.00 | 0.00 | 55 | 1014.4 |
| 20260506211519 | 54 | 121 | 0.0 | 2.6 | 0.00 | 0.00 | 0.00 | 56 | 1014.4 |
| 20260506210520 | 55 | 125 | 0.0 | 1.7 | 0.00 | 0.00 | 0.00 | 54 | 1014.3 |
| 20260506205520 | 55 | 62 | 0.0 | 2.6 | 0.00 | 0.00 | 0.00 | 55 | 1014.3 |
| 20260506204540 | 55 | 84 | 0.0 | 1.7 | 0.00 | 0.00 | 0.00 | 54 | 1014.3 |
| 20260506203518 | 55 | 113 | 0.0 | 1.7 | 0.00 | 0.00 | 0.00 | 54 | 1014.2 |
| 20260506202523 | 55 | 119 | 0.0 | 1.7 | 0.00 | 0.00 | 0.00 | 54 | 1014.2 |
| 20260506201520 | 55 | 123 | 0.0 | 3.5 | 0.00 | 0.00 | 0.00 | 54 | 1014.1 |
| 20260506200518 | 55 | 123 | 0.0 | 2.6 | 0.00 | 0.00 | 0.00 | 55 | 1014.0 |
| 20260506195518 | 55 | 133 | 0.0 | 1.7 | 0.00 | 0.00 | 0.00 | 55 | 1013.9 |
| 20260506194518 | 55 | 64 | 0.0 | 1.7 | 0.00 | 0.00 | 0.00 | 56 | 1013.9 |
| 20260506193519 | 56 | 118 | 0.0 | 0.9 | 0.00 | 0.00 | 0.00 | 53 | 1013.8 |
| 20260506192518 | 56 | 94 | 0.0 | 2.6 | 0.00 | 0.00 | 0.00 | 53 | 1013.9 |
| 20260506191519 | 56 | 116 | 0.0 | 1.7 | 0.00 | 0.00 | 0.00 | 52 | 1013.9 |
| 20260506190519 | 56 | 138 | 0.0 | 0.9 | 0.00 | 0.00 | 0.00 | 53 | 1013.9 |
| 20260506184519 | 56 | 0.0 | 0.0 | 0.00 | 0.00 | 0.00 | 53 | 1013.8 | |
| 20260506183639 | 56 | 180 | 0.0 | 0.9 | 0.00 | 0.00 | 0.00 | 52 | 1013.7 |
| 20260506182520 | 57 | 133 | 0.0 | 1.7 | 0.00 | 0.00 | 0.00 | 52 | 1013.7 |
| 20260506181540 | 57 | 126 | 0.0 | 0.9 | 0.00 | 0.00 | 0.00 | 53 | 1013.7 |
| 20260506180621 | 57 | 115 | 0.0 | 1.7 | 0.00 | 0.00 | 0.00 | 53 | 1013.6 |
| 20260506175517 | 57 | 103 | 0.0 | 2.6 | 0.00 | 0.00 | 0.00 | 52 | 1013.5 |
| 20260506174517 | 57 | 67 | 0.0 | 1.7 | 0.00 | 0.00 | 0.00 | 52 | 1013.6 |
| 20260506173523 | 57 | 141 | 0.0 | 2.6 | 0.00 | 0.00 | 0.00 | 52 | 1013.5 |